Regional Weather Roundup
Issued by NWS Burlington, VT

Home | Current Version | Previous Version | Graphics & Text | Print | Product List | Glossary On
Versions: 1 2 3 4 5 6 7 8 9 10 11 12 13 14 15 16 17 18 19 20 21 22 23 24 25 26 27 28 29 30 31 32 33 34 35 36 37 38 39 40 41 42 43 44 45 46 47 48 49 50
000
ASUS41 KBTV 290330
RWRBTV
VERMONT REGIONAL WEATHER ROUNDUP
NATIONAL WEATHER SERVICE BURLINGTON VT
1100 PM EDT SAT MAR 28 2015

NOTE: "FAIR" INDICATES FEW OR NO CLOUDS BELOW 12,000 FEET WITH NO
SIGNIFICANT WEATHER AND/OR OBSTRUCTIONS TO VISIBILITY.

* THESE REPORTS ARE NOT UNDER NWS QUALITY CONTROL AND/OR DO NOT
  REPORT WEATHER SUCH AS PRECIPITATION AND FOG.

VTZ001>019-290400-
_____VERMONT_____


CITY           SKY/WX    TMP DP  RH WIND       PRES   REMARKS
BURLINGTON     CLEAR     19   9  65 SW3       30.11S
MONTPELIER     CLEAR     18   3  52 NW7       30.08R
MORRISVILLE    CLEAR     14   6  70 CALM      30.09R
ST. JOHNSBURY*   N/A     21   4  47 MISG      30.05R
LYNDONVILLE*     N/A     16   2  54 N3        30.05R
MIDDLEBURY*      N/A     21   7  54 CALM      30.11R
RUTLAND*       CLEAR     18   9  68 SE5       30.09R
SPRINGFIELD    CLEAR     24   1  36 VRB7      30.08R
HIGHGATE*        N/A     21   7  53 CALM      30.11R
NEWPORT*         N/A     15   4  61 CALM      30.05S
BENNINGTON     CLOUDY    24   8  50 N9        30.08R
SUTTON*          N/A     16 N/A N/A MISG        N/A
MT. MANSFIELD*   N/A      5 N/A N/A CALM        N/A

_____LAKE CHAMPLAIN_____


CITY           SKY/WX    TMP DP  RH WIND       PRES   REMARKS
BURTON ISLAND*   N/A     23  10  58 SW8         N/A
COLCHESTER RF*   N/A     25   5  42 NW6         N/A
DIAMOND ISL*     N/A     23  12  63 SW1         N/A

$$

NYZ007-026>031-035-052-083-290400-
_____NORTHERN NEW YORK_____


CITY           SKY/WX    TMP DP  RH WIND       PRES   REMARKS
PLATTSBURGH    CLEAR     22   3  44 VRB6      30.11R
SARANAC LAKE   CLEAR      1  -3  83 CALM      30.04R
MASSENA        CLEAR     20   4  50 SW5       30.16R
OGDENSBURG*    CLEAR     14   9  79 CALM      30.16R
POTSDAM*       CLEAR     18   7  62 S3        30.15S
WATERTOWN      CLEAR     19   7  59 S6        30.18R
FT DRUM        CLEAR     16   2  54 SW6       30.14R
ALBANY         CLOUDY    26  10  50 NW17      30.14R WCI  13
GLENS FALLS    CLEAR     24   4  42 NW8       30.13R

$$
NHZ002-005-011-290400-
_____NEW HAMPSHIRE_____


CITY           SKY/WX    TMP DP  RH WIND       PRES   REMARKS
LEBANON        CLEAR     24   4  42 N6        30.06R
KEENE          PTCLDY    27   5  39 N10       30.06R WCI  17
MT WASHINGTON  MOCLDY    -2 -11  65 NW24        N/A  WCI -27
PLYMOUTH         N/A     24   8  49 NW10      30.04R WCI  14
WHITEFIELD     PTCLDY    19   5  54 CALM      30.03R

$$

_____REGIONAL QUEBEC LOCATIONS_____


CITY           SKY/WX    TMP DP  RH WIND       PRES   REMARKS
MONTREAL       CLEAR     23   5  46 W7        30.11R
QUEBEC CITY    CLEAR     19  -4  35 NW6       30.04R
SHERBROOKE     CLEAR     16   3  57 VRB2      30.03R

_____REGIONAL ONTARIO LOCATIONS_____


CITY           SKY/WX    TMP DP  RH WIND       PRES   REMARKS
OTTAWA         CLEAR     21   1  42 W3        30.14R

______KEY______
VSB  - VISIBILITY IN MILES
WCI  - WIND CHILL INDEX
HX   - HEAT INDEX
$$



USA.gov is the U.S. government's official web portal to all federal, state and local government web resources and services.